Simultaneous Nadir Overpasses (SNOs) Predictions

Prediction of SNOs between METOP-A and NOAA-19 Satellite Orbit:

Table of predicted SNOs for the next 14.0 days since TLE Epoch: 9/7/2019
Index Date (METOP-A) Time (METOP-A) Lat,Lon (METOP-A) SZA (METOP-A ) Date (NOAA-19) Time (NOAA-19) Lat,Lon (NOAA-19) SZA (NOAA-19 ) Distance(km) Time Diff (sec)
1 09/11/2019 22:19:09 80.11,-140.49 76.02 09/11/2019 22:18:03 80.09,-144.04 75.84 68.00 66
2 09/11/2019 23:09:56 -79.94, 25.22 104.21 09/11/2019 23:08:52 -79.93, 25.35 104.23 3.07 64
3 09/12/2019 00:00:36 79.95,-167.42 75.82 09/11/2019 23:59:57 79.93,-167.42 75.79 2.04 39
4 09/12/2019 00:51:18 -79.93, -0.23 104.19 09/12/2019 00:50:53 -79.94, -0.22 104.20 0.26 25
5 09/12/2019 01:41:58 79.94, 167.14 75.83 09/12/2019 01:41:58 79.94, 167.00 75.82 2.65 0
6 09/12/2019 02:32:40 -79.92, -25.67 104.18 09/12/2019 02:32:54 -79.94, -25.79 104.17 3.14 14
7 09/12/2019 03:23:20 79.93, 141.69 75.84 09/12/2019 03:23:58 79.92, 141.74 75.84 1.24 38
8 09/12/2019 04:14:02 -79.91, -51.12 104.17 09/12/2019 04:14:54 -79.92, -51.06 104.15 1.73 52




NCC Satellite Simultaneous Nadir Overpasses (SNOs) Prediction Service
